[[{"header":{"parameterUnit":"m.s-1","parameterCategory":1,"la1":30.2991,"la2":30.254,"lo1":-89.0895,"lo2":-89.0444,"dy":0.0017,"dx":0.0017,"nx":28,"ny":28,"refTime":"2025-04-23T09:00:00:Z","depth":0,"parameterNumber":2,"parameterNumberName":"U-component_of_WINDS"},"data":[0,0,0,0,0,0,0,0,0,0,0,0,0,0,0,0,0,0,0,0,0,0,0,0,0,0,0,0,0,0,0,0,0,0,0,0,0,0,0,0,0,0,0,0,0,0,0,0,0,0,0,0,0,0,0,0,0,0,-1.7511,-1.7511,0,-1.7454,-1.7454,-1.7453,-1.74,-1.7399,-1.7399,-1.7398,-1.7338,-1.7337,-1.7336,0,0,0,0,0,0,0,0,0,0,0,0,0,-1.7575,-1.7574,-1.7512,-1.7511,-1.751,-1.7454,-1.7454,-1.7453,-1.74,-1.7399,-1.7399,-1.7398,-1.7338,-1.7337,-1.7335,0,0,0,0,0,0,0,0,0,0,0,0,0,-1.7536,-1.7574,-1.7512,-1.7477,-1.7473,-1.7455,-1.7454,-1.7453,-1.74,-1.7399,-1.7398,-1.7397,-1.7338,-1.7337,-1.7335,-1.7345,0,0,-1.7331,-1.733,0,0,0,0,0,0,0,0,-1.7538,-1.7533,-1.7483,-1.7479,-1.7475,-1.7433,-1.7454,-1.7417,-1.74,-1.7428,-1.7398,-1.7397,-1.737,-1.7366,-1.7357,-1.7342,-1.734,-1.733,-1.733,-1.7329,-1.7328,0,0,0,0,0,0,0,-1.7541,-1.7536,-1.7489,-1.7482,-1.7478,-1.7465,-1.7458,-1.7446,-1.7405,-1.7426,-1.7422,-1.7416,-1.7368,-1.7359,-1.7355,-1.7339,-1.7331,-1.7329,-1.7328,-1.7328,-1.7331,-1.7332,0,0,0,0,0,0,-1.7549,-1.7538,-1.7491,-1.7487,-1.7505,-1.7464,-1.7457,-1.7448,-1.7405,-1.7398,-1.7417,-1.7413,-1.7362,-1.7357,-1.7353,-1.7362,-1.7329,-1.7328,-1.7327,-1.733,-1.7331,-1.7332,0,0,0,0,0,0,-1.7551,-1.7545,-1.7493,-1.7512,-1.7504,-1.7464,-1.7455,-1.7447,-1.7438,-1.7398,-1.7391,-1.7415,-1.7361,-1.7355,-1.7348,-1.7359,-1.7327,-1.7325,-1.7329,-1.733,-1.7332,-1.738,0,0,0,0,0,0,-1.7553,-1.7546,-1.7549,-1.7512,-1.7503,-1.7489,-1.7455,-1.7447,-1.7436,-1.7431,-1.7395,-1.7388,-1.736,-1.7351,-1.7346,-1.7356,-1.7324,-1.7327,-1.7329,-1.7331,-1.7377,-1.7383,-1.7388,0,0,0,0,0,-1.7555,-1.7564,-1.755,-1.7544,-1.7506,-1.749,-1.7484,-1.7452,-1.7437,-1.744,-1.7415,-1.7389,-1.7359,-1.735,-1.7345,-1.7355,-1.7326,-1.7329,-1.7331,-1.7375,-1.7382,-1.7388,0,0,0,0,0,0,-1.7602,-1.7559,-1.7542,-1.754,-1.7519,-1.7481,-1.7483,-1.7461,-1.7443,-1.744,-1.7401,-1.7393,-1.739,-1.7372,-1.7363,-1.7363,-1.7339,-1.7341,-1.7374,-1.7381,-1.7386,-1.7389,-1.7323,0,0,0,0,0,-1.7613,-1.7603,-1.7566,-1.7567,-1.7558,-1.7523,-1.7514,-1.7492,-1.7468,-1.7459,-1.7433,-1.7411,-1.7397,-1.7388,-1.7373,-1.7375,-1.7367,-1.738,-1.7385,-1.739,-1.7391,-1.7391,-1.7396,-1.7339,-1.7339,-1.7339,0,0,-1.7634,-1.7609,-1.7605,-1.7576,-1.7557,-1.7548,-1.7515,-1.7507,-1.7499,-1.7457,-1.7449,-1.743,-1.7403,-1.7401,-1.7399,-1.7386,-1.7405,-1.7393,-1.7397,-1.7395,-1.7394,-1.7399,-1.7404,-1.7341,-1.7341,-1.734,0,0,-1.7667,-1.7647,-1.7647,-1.7629,-1.7602,-1.7579,-1.7579,-1.7545,-1.7531,-1.7522,-1.7491,-1.7482,-1.7459,-1.7441,-1.7429,-1.7459,-1.7434,-1.7455,-1.7482,-1.7483,-1.7488,-1.7491,-1.7502,-1.7506,-1.7457,-1.7457,-1.7457,0,-1.7696,-1.7681,-1.7649,-1.7643,-1.7631,-1.7595,-1.7594,-1.7579,-1.7548,-1.7541,-1.7527,-1.7498,-1.7477,-1.7471,-1.7478,-1.747,-1.7469,-1.7458,-1.749,-1.7493,-1.7496,-1.7505,-1.7509,-1.7459,-1.7459,-1.7459,-1.7459,0,-1.7718,-1.7708,-1.7711,-1.7683,-1.7672,-1.7669,-1.7637,-1.763,-1.761,-1.7588,-1.7581,-1.7555,-1.7535,-1.7532,-1.7512,-1.7523,-1.7516,-1.7497,-1.7472,-1.7505,-1.7513,-1.7516,-1.7463,-1.7462,-1.7461,-1.7461,0,0,-1.7775,-1.7732,-1.7734,-1.7721,-1.769,-1.7682,-1.7678,-1.7659,-1.7653,-1.7634,-1.7629,-1.7612,-1.7595,-1.7581,-1.7559,-1.756,-1.7586,-1.7541,-1.7539,-1.7549,-1.7597,-1.761,-1.7615,-1.7571,-1.7571,-1.7572,-1.7599,0,-1.7802,-1.7792,-1.7764,-1.7763,-1.7754,-1.7721,-1.7717,-1.7698,-1.7679,-1.7669,-1.7648,-1.7635,-1.7614,-1.7606,-1.7606,-1.7582,-1.7594,-1.758,-1.7565,-1.7565,-1.7571,-1.7619,-1.7632,-1.7659,-1.7602,-1.7602,-1.7603,0,-1.783,-1.7815,-1.7812,-1.7783,-1.7778,-1.7776,-1.7757,-1.7748,-1.7726,-1.7712,-1.7699,-1.7675,-1.7669,-1.7648,-1.764,-1.7631,-1.7624,-1.7612,-1.7612,-1.7607,-1.7584,-1.7614,-1.7667,-1.7671,-1.7607,-1.7607,-1.7607,0,-1.7872,-1.785,-1.7846,-1.7837,-1.7803,-1.7802,-1.7787,-1.7765,-1.7756,-1.774,-1.7733,-1.7717,-1.7707,-1.7696,-1.7668,-1.7656,-1.7663,-1.7639,-1.7651,-1.7651,-1.7651,-1.7651,-1.7702,-1.765,-1.765,-1.765,-1.765,0,-1.7903,-1.7903,-1.7864,-1.7861,-1.7861,-1.783,-1.783,-1.7813,-1.7794,-1.7788,-1.7759,-1.7754,-1.7719,-1.771,-1.7688,-1.7685,-1.7681,-1.7669,-1.7663,-1.7671,-1.7672,-1.7663,-1.766,-1.7651,-1.7651,-1.765,-1.765,0,-1.7947,-1.7922,-1.7915,-1.7885,-1.7877,-1.7878,-1.7852,-1.7848,-1.7829,-1.7822,-1.7818,-1.7787,-1.7775,-1.7748,-1.7728,-1.7714,-1.7715,-1.7706,-1.7723,-1.7719,-1.7731,-1.773,-1.7776,-1.7781,-1.7728,-1.7728,-1.7729,0,-1.7968,-1.7967,-1.7937,-1.7932,-1.7919,-1.791,-1.7901,-1.7872,-1.7864,-1.7841,-1.784,-1.7826,-1.7813,-1.7796,-1.7772,-1.7757,-1.7746,-1.7763,-1.7743,-1.7751,-1.7745,-1.7745,-1.7744,-1.7767,-1.7768,-1.7768,-1.7769,0,-1.8007,-1.7995,-1.7984,-1.7968,-1.7959,-1.7945,-1.793,-1.7927,-1.7895,-1.7887,-1.7875,-1.7866,-1.7847,-1.7833,-1.7816,-1.7801,-1.778,-1.7776,-1.7777,-1.7784,-1.7794,-1.7788,-1.7733,-1.7774,-1.7774,-1.7773,-1.7773,-1.7773,-1.8039,-1.8037,-1.8017,-1.8005,-1.7991,-1.7978,-1.7974,-1.7955,-1.7945,-1.7927,-1.7912,-1.7901,-1.7881,-1.7856,-1.7843,-1.7835,-1.7824,-1.7826,-1.7826,-1.7827,-1.783,-1.7797,-1.7832,-1.7831,-1.7831,-1.7831,-1.7831,0,-1.8076,-1.8062,-1.8052,-1.8032,-1.8024,-1.8006,-1.7989,-1.7983,-1.7974,-1.7958,-1.7947,-1.7934,-1.7922,-1.7898,-1.7884,-1.7882,-1.7872,-1.7879,-1.7877,-1.7875,-1.7841,-1.7841,-1.7887,-1.7887,-1.7887,-1.7887,-1.7887,-1.7887,-1.8094,-1.809,-1.8076,-1.8065,-1.8051,-1.8041,-1.8033,-1.8021,-1.8008,-1.7995,-1.7985,-1.7971,-1.7951,-1.7936,-1.7924,-1.7918,-1.7913,-1.7923,-1.7914,-1.7882,-1.7877,-1.7872,-1.7871,-1.7923,-1.7923,-1.7947,-1.7948,-1.7948]},{"header":{"parameterUnit":"m.s-1","parameterCategory":1,"la1":30.2991,"la2":30.254,"lo1":-89.0895,"lo2":-89.0444,"dy":0.0017,"dx":0.0017,"nx":28,"ny":28,"refTime":"2025-04-23T09:00:00:Z","depth":0,"parameterNumber":3,"parameterNumberName":"V-component_of_WINDS"},"data":[0,0,0,0,0,0,0,0,0,0,0,0,0,0,0,0,0,0,0,0,0,0,0,0,0,0,0,0,0,0,0,0,0,0,0,0,0,0,0,0,0,0,0,0,0,0,0,0,0,0,0,0,0,0,0,0,0,0,2.4351,2.4352,0,2.4368,2.4368,2.4368,2.4402,2.4403,2.4403,2.4404,2.4419,2.4419,2.4419,0,0,0,0,0,0,0,0,0,0,0,0,0,2.4346,2.4346,2.4351,2.4352,2.4352,2.4368,2.4368,2.4369,2.4402,2.4403,2.4404,2.4404,2.4419,2.4419,2.4419,0,0,0,0,0,0,0,0,0,0,0,0,0,2.4354,2.4346,2.4351,2.437,2.4372,2.4368,2.4368,2.4369,2.4402,2.4403,2.4404,2.4405,2.442,2.4419,2.4419,2.4397,0,0,2.4418,2.4418,0,0,0,0,0,0,0,0,2.4354,2.4354,2.4367,2.4369,2.4371,2.4384,2.4372,2.4378,2.4402,2.4391,2.4404,2.4405,2.4407,2.4407,2.4408,2.4397,2.4398,2.4418,2.4418,2.4418,2.4417,0,0,0,0,0,0,0,2.4353,2.4354,2.4358,2.4368,2.437,2.4377,2.438,2.4373,2.4393,2.4392,2.4394,2.4396,2.4408,2.4409,2.4409,2.4398,2.4418,2.4418,2.4417,2.4417,2.4369,2.4368,0,0,0,0,0,0,2.435,2.4353,2.4357,2.4358,2.4365,2.4377,2.4379,2.4379,2.4393,2.4396,2.4395,2.4397,2.4409,2.4409,2.441,2.4385,2.4418,2.4417,2.4417,2.437,2.4369,2.4368,0,0,0,0,0,0,2.435,2.435,2.4357,2.4356,2.4358,2.4376,2.4375,2.4379,2.438,2.4395,2.4399,2.4392,2.4409,2.441,2.44,2.4386,2.4417,2.4417,2.4372,2.437,2.4369,2.4334,0,0,0,0,0,0,2.4349,2.435,2.4342,2.4356,2.4358,2.4347,2.4374,2.4378,2.4379,2.4382,2.4394,2.4397,2.441,2.44,2.4399,2.4386,2.4417,2.4373,2.4371,2.4369,2.4337,2.4332,2.4327,0,0,0,0,0,2.4349,2.4332,2.4342,2.4342,2.4349,2.4346,2.4347,2.4364,2.4378,2.437,2.438,2.4396,2.4387,2.4399,2.4398,2.4384,2.4374,2.4372,2.4369,2.4339,2.4333,2.4327,0,0,0,0,0,0,2.4315,2.4334,2.4345,2.4332,2.4337,2.4352,2.4343,2.4357,2.4358,2.4361,2.4381,2.4383,2.437,2.4376,2.4389,2.4363,2.4383,2.438,2.436,2.4354,2.435,2.4349,2.4416,0,0,0,0,0,2.4306,2.4304,2.432,2.4306,2.4308,2.4325,2.4324,2.4337,2.4343,2.4345,2.4355,2.436,2.4358,2.4356,2.4356,2.4337,2.434,2.4327,2.4323,2.4319,2.4316,2.4307,2.4301,2.436,2.436,2.436,0,0,2.4288,2.4297,2.4294,2.4299,2.4305,2.4301,2.4327,2.4321,2.4318,2.4344,2.4336,2.4342,2.4349,2.4334,2.4328,2.4339,2.4301,2.4316,2.4312,2.4312,2.4304,2.4298,2.4293,2.4358,2.4359,2.4359,0,0,2.4252,2.4259,2.4249,2.4254,2.4262,2.4273,2.427,2.4283,2.4289,2.428,2.4299,2.4295,2.4292,2.4296,2.4297,2.4261,2.4276,2.426,2.4236,2.4227,2.4222,2.4218,2.4205,2.42,2.4258,2.4258,2.4258,0,2.4228,2.4223,2.4241,2.4235,2.4236,2.426,2.4249,2.4252,2.426,2.426,2.4271,2.4267,2.4273,2.426,2.4251,2.4252,2.4249,2.426,2.4221,2.4217,2.4214,2.4202,2.4197,2.4256,2.4256,2.4256,2.4257,0,2.4193,2.4189,2.418,2.4187,2.4187,2.4178,2.4194,2.4192,2.4203,2.4213,2.4203,2.4211,2.4212,2.421,2.4221,2.4198,2.4204,2.4218,2.4238,2.4206,2.4195,2.4191,2.4253,2.4254,2.4254,2.4255,0,0,2.4138,2.4154,2.415,2.4154,2.4164,2.4161,2.4153,2.4154,2.4152,2.4156,2.4149,2.4145,2.4158,2.4159,2.4171,2.4163,2.4134,2.4178,2.4178,2.417,2.4108,2.4098,2.4092,2.4143,2.4142,2.4142,2.4107,0,2.4105,2.4093,2.4108,2.4092,2.4089,2.411,2.4103,2.4108,2.4116,2.4113,2.4122,2.4119,2.4136,2.4137,2.413,2.4139,2.4122,2.4141,2.4137,2.4136,2.4135,2.4087,2.4076,2.4043,2.4103,2.4103,2.4102,0,2.4065,2.4068,2.4051,2.4062,2.4061,2.4055,2.4057,2.4054,2.406,2.4066,2.4067,2.4081,2.4073,2.4092,2.4081,2.4094,2.4093,2.4096,2.4096,2.4096,2.4118,2.4086,2.4034,2.4029,2.4096,2.4096,2.4097,0,2.4027,2.4026,2.4016,2.4018,2.403,2.4025,2.403,2.4036,2.4036,2.4037,2.4037,2.4037,2.4037,2.4037,2.405,2.4063,2.4036,2.4057,2.4041,2.4041,2.4036,2.4036,2.3982,2.4034,2.4034,2.4034,2.4034,0,2.3989,2.3979,2.3999,2.3993,2.3981,2.3998,2.3986,2.3993,2.3998,2.3993,2.4011,2.4006,2.4023,2.402,2.403,2.4019,2.4018,2.4023,2.4026,2.4022,2.4021,2.4022,2.4025,2.4033,2.4033,2.4033,2.4033,0,2.3945,2.3958,2.3949,2.3961,2.3964,2.3955,2.3965,2.3959,2.3968,2.3961,2.3961,2.3974,2.3971,2.3984,2.3982,2.3989,2.3972,2.3979,2.3971,2.3973,2.3957,2.3958,2.3902,2.3895,2.395,2.395,2.3949,0,2.3921,2.3913,2.3924,2.3922,2.3926,2.3923,2.3922,2.3938,2.3937,2.3942,2.3936,2.3934,2.3933,2.3926,2.3936,2.3934,2.3941,2.3921,2.3941,2.3937,2.3941,2.3941,2.3941,2.3917,2.3917,2.3916,2.3916,0,2.3875,2.3882,2.3881,2.3882,2.3882,2.3883,2.3886,2.3883,2.39,2.3897,2.3894,2.3893,2.3892,2.3889,2.389,2.3894,2.3907,2.3909,2.3906,2.3902,2.3898,2.39,2.396,2.3911,2.3911,2.3912,2.3912,2.3912,2.3841,2.3835,2.3841,2.384,2.3843,2.3845,2.384,2.3848,2.3846,2.3846,2.3855,2.385,2.3855,2.3857,2.3859,2.3855,2.3864,2.3859,2.3858,2.3856,2.3853,2.3898,2.3855,2.3855,2.3855,2.3855,2.3856,0,2.3797,2.3802,2.38,2.3803,2.3801,2.3814,2.3817,2.3815,2.3811,2.3814,2.3813,2.3809,2.3806,2.3815,2.3813,2.3808,2.3814,2.3807,2.3808,2.3808,2.3845,2.3849,2.3802,2.3802,2.3802,2.3802,2.3802,2.3802,2.3774,2.3765,2.3772,2.3764,2.3769,2.3764,2.3765,2.3766,2.3769,2.3764,2.3762,2.3767,2.3773,2.3771,2.3769,2.3772,2.377,2.3761,2.3766,2.38,2.3806,2.3811,2.3814,2.3761,2.3761,2.3729,2.3729,2.3729]}]]